Voltar ao catálogo

CZ-4 R/B

AtivoSSO
NORAD 19468·ROCKET BODY·🇨🇳 China

Lançado Sep 6, 1988 de Taiyuan Satellite Launch Center

Loading…

Próximas Passagens (próximas 24 horas)

TLE

AtualizadoSource: Space-Track

Época: Sep 14, 2026, 14:56 UTC

1 19468U 88080B   26257.62229249 -.00000215  00000-0 -10656-3 0  9991
2 19468  98.9491 304.9656 0071927  42.8619 119.8369 14.03771389946738

Acompanhe CZ-4 R/B em tempo real com AllMySat

Download on the App Store